DAOOLEAL

Guest
Details From DAOO - ES SENIA
To LEAL - Alicante
Flight Number -
Tags generated
Created
Modified
Stats Distance 167 nm / 310 km
Max Altitude 15,900 ft / 4,846 m
Waypoints 3
Social Downloads 3
Likes 0
Share VATSIM

Download

Looking for another format? Having issues loading an existing format? Contact us
Advertisement - Login to hide

Notes

Basic altitude profile: - Ascent Rate: 2500ft/min - Ascent Speed: 250kts - Cruise Altitude: 35000ft - Cruise Speed: 420kts - Descent Rate: 1500ft/min - Descent Speed: 250kts Options: - Use NATs: yes - Use PACOTS: yes - Use low airways: yes - Use high airways: yes

Route

DAOO RINDI LEAL

ID Type Via Altitude Latitude Longitude Leg Dist Tot Dist Heading (true) Name
O DAOO APT - 0 ft / 0 m 35.62386˚ -0.62118˚ - 0 nm - ES SENIA
RINDI FIX - 15,900 ft / 4,846 m 37.10556˚ -0.06361˚ 92 nm 92 nm 17° / 17° -
O LEAL APT - 0 ft / 0 m 38.28217˚ -0.55816˚ 74 nm 167 nm 342° / 341° Alicante

Altitude Profile

Advertisement - Login to hide

Weather


0- 5 10 15 20 25 30 35+ Temperature / ° C

Clouds and Precipitation
Forecast for 2018-05-21 18:00 UTC. Updated 15 minutes ago

Ground ~20,000 ft ~40,000 ft Winds

DAOO

Details ICAO DAOO (ORN)
Name ES SENIA
Region Algeria
Timezone Africa/Algiers (UTC+1.0)
Stats Elevation 295 ft / 90 m (AMSL)
Location 35.623858° -0.621183°
Runways 1
Magnetic Variation 0.197° E

METAR

DAOO 211530Z 34014KT 9999 FEW020TCU SCT026 21/13 Q1011

Decode

TAF

TAF DAOO 211100Z 2112/2212 35012KT 9999 SCT026 BECMG 2120/2123 VRB02KT PROB30 TEMPO 2202/2208 2000 BR BKN010 BECMG 2209/2212 02012KT

Decode

Departure Runways

ID Width Length Bearing (true) Bearing (mag) Surface Threshold Offset Overrun Length
07 148 ft / 45 m 10,006 ft / 3,050 m 67.06° 66.86° Asphalt 0 ft / 0 m 328 ft / 100 m
25 148 ft / 45 m 10,006 ft / 3,050 m 247.08° 246.88° Asphalt 196 ft / 60 m 0 ft / 0 m

LEAL

Details ICAO LEAL (ALC)
Name Alicante
Region Spain
Timezone Europe/Madrid (UTC+2.0)
Stats Elevation 141 ft / 43 m (AMSL)
Location 38.282169° -0.558157°
Runways 1
Magnetic Variation 0.231° E

METAR

LEAL 211530Z 16008KT 080V230 9999 FEW020 23/11 Q1011 NOSIG

Decode

TAF

TAF AMD LEAL 211421Z 2114/2212 15010KT 9999 FEW010 TX24/2212Z TN14/2206Z TEMPO 2115/2119 FEW025CB BECMG 2119/2121 VRB04KT BECMG 2210/2212 15010KT

Decode

Destination Runways

ID Width Length Bearing (true) Bearing (mag) Surface Threshold Offset Overrun Length
10 148 ft / 45 m 9,799 ft / 2,987 m 100.07° 99.84° Asphalt 0 ft / 0 m 164 ft / 50 m
28 148 ft / 45 m 9,799 ft / 2,987 m 280.09° 279.86° Asphalt 0 ft / 0 m 197 ft / 60 m

Approach Navaids

Runway Type Ident Frequency Range Bearing (true) Bearing (mag) Slope Elevation
10 Localiser IAT 110.30 MHz 18 nm / 33 km 100.09° 99.86° - 29 ft / 9 m (AMSL)
10 Glidescope IAT 110.30 MHz 10 nm / 19 km 100.09° 99.86° 3.00° 129 ft / 39 m (AMSL)
10 DME IAT 110.30 MHz 18 nm / 33 km - - - 129 ft / 39 m (AMSL)

Popular Alternatives